Location: Ku?niki
(51.4449°N, 17.8974°E)
Time: 07:14:47
(UTC+00:00)

SO-50 - Visible Passes

Search period start: 01 July 2022 00:00
Search period end: 11 July 2022 00:00
Orbit: 586 x 697 km, 64.6° (Epoch: 30 June)

Date Brightness Start Highest point End Pass type
(mag) Time Alt. Az. Time Alt. Az. Time Alt. Az.
01 Jul ? 00:22:00 13° WSW 00:26:11 62° NW 00:31:04 10° NE visible
01 Jul ? 23:07:52 26° S 23:10:17 53° SE 23:15:02 10° NE visible
02 Jul ? 00:46:28 10° WSW 00:50:56 38° NNW 00:55:31 10° NE visible
02 Jul ? 21:53:41 18° SE 21:54:52 19° ESE 21:58:17 10° ENE visible
02 Jul ? 23:31:14 19° SW 23:34:43 82° NW 23:39:38 10° NE visible
03 Jul ? 01:11:47 10° W 01:15:51 26° NNW 01:20:00 10° NNE visible
03 Jul ? 22:16:58 26° SSE 22:18:58 38° ESE 22:23:28 10° NE visible
03 Jul ? 23:54:45 10° WSW 23:59:22 47° NW 00:04:08 10° NE visible
04 Jul ? 01:37:17 10° WNW 01:40:55 20° NNW 01:44:36 10° NNE visible
04 Jul ? 21:02:37 13° ESE 21:03:42 14° ESE 21:06:05 10° E visible
04 Jul ? 22:40:10 21° SSW 22:43:18 75° SE 22:48:12 10° NE visible
05 Jul ? 00:19:56 10° W 00:24:12 31° NNW 00:28:35 10° NNE visible
05 Jul ? 21:25:44 21° SSE 21:27:42 28° ESE 21:31:49 10° ENE visible
05 Jul ? 23:03:15 11° WSW 23:07:51 61° NW 23:12:43 10° NE visible
06 Jul ? 00:45:22 10° WNW 00:49:12 23° NNW 00:53:06 10° NNE visible
06 Jul ? 21:48:40 19° SSW 21:51:55 55° SE 21:56:42 10° NE visible
06 Jul ? 23:28:08 10° WSW 23:32:35 37° NNW 23:37:10 10° NE visible
07 Jul ? 01:10:53 10° NW 01:14:20 19° N 01:17:49 10° NE visible
07 Jul ? 20:33:54 13° SSE 20:36:29 20° ESE 20:39:59 10° ENE visible
07 Jul ? 22:11:36 10° SW 22:16:22 80° NW 22:21:18 10° NE visible
07 Jul ? 23:53:29 10° W 23:57:31 26° NNW 00:01:39 10° NNE visible
08 Jul ? 01:36:13 10° NW 01:39:32 18° N 01:42:52 10° NE visible
08 Jul ? 20:56:21 11° S 21:00:36 39° ESE 21:05:09 10° NE visible
08 Jul ? 22:36:25 10° WSW 22:41:02 46° NW 22:45:47 10° NE visible
09 Jul ? 00:18:59 10° WNW 00:22:35 20° NNW 00:26:16 10° NNE visible
09 Jul ? 19:42:51 10° SE 19:45:19 14° ESE 19:47:50 10° ENE visible
09 Jul ? 21:20:12 10° SW 21:24:57 77° SE 21:29:51 10° NE visible
09 Jul ? 23:01:37 10° W 23:05:53 30° NNW 23:10:14 10° NNE visible
10 Jul ? 00:44:25 10° NW 00:47:46 18° N 00:51:08 10° NE visible
10 Jul ? 20:05:18 10° S 20:09:20 28° ESE 20:13:29 10° ENE visible
10 Jul ? 21:44:47 10° WSW 21:49:30 59° NW 21:54:22 10° NE visible
10 Jul ? 23:27:04 10° WNW 23:30:53 22° NNW 23:34:45 10° NNE visible
